Weather History for KHIE - November, 2013

Change the Weather History Date:

Monday, November 25, 2013

  Actual Average Record
Temperature  
Mean Temperature 14 °F -  
Max Temperature 21 °F 37 °F 64 °F (2004)
Min Temperature 8 °F 20 °F -2 °F (2000)
Degree Days  
Heating Degree Days 50    
Moisture  
Dew Point 1 °F    
Average Humidity 58    
Maximum Humidity 71    
Minimum Humidity 32    
Precipitation  
Precipitation 0.00 in - - ()
Sea Level Pressure  
Sea Level Pressure 30.27 in    
Wind  
Wind Speed 6 mph (SW)    
Max Wind Speed 12 mph    
Max Gust Speed 24 mph    
Visibility 10 miles    
Events      
Averages and records for this station are not official NWS values.
T = Trace of Precipitation, MM = Missing Value Source: NWS Daily Summary

Daily Weather History Graph

Daily Weather History Graph

Search for Another Location

Airport or City:

Trip Planner

Search our weather history database for the weather conditions in past years. The results will help you decide how hot, cold, wet, or windy it might be!

Date:

Astronomy

Nov. 25, 2013 Rise Set
Actual Time 6:55 AM EST 4:10 PM EST
Civil Twilight 6:23 AM EST 4:43 PM EST
Nautical Twilight 5:47 AM EST 5:19 PM EST
Astronomical Twilight 5:12 AM EST 5:53 PM EST
Moon 11:42 PM EST (11/25) 12:01 PM EST (11/25)
Length of Visible Light 10h 20m
Length of Day
9h 15m
Waning Gibbous, 51% of the Moon is Illuminated
Nov 25
Waning Gibbous
Nov 25
Last Quarter
Dec 2
New
Dec 9
First Quarter
Dec 17
Full

Hourly Weather History & Observations

Time (EST) Temp. Windchill Dew Point Humidity Pressure Visibility Wind Dir Wind Speed Gust Speed Precip Events Conditions
12:52 AM 10.9 °F -3.4 °F -2.0 °F 56% 30.19 in 10.0 mi WNW 11.5 mph 24.2 mph N/A   Clear
1:52 AM 10.0 °F -3.7 °F -2.0 °F 58% 30.21 in 10.0 mi West 10.4 mph - N/A   Clear
2:52 AM 10.0 °F -2.9 °F -2.0 °F 58% 30.24 in 10.0 mi West 9.2 mph - N/A   Clear
3:52 AM 8.1 °F -2.0 °F -2.0 °F 64% 30.27 in 10.0 mi SW 5.8 mph - N/A   Clear
4:52 AM 8.1 °F -0.5 °F -0.9 °F 67% 30.28 in 10.0 mi SW 4.6 mph - N/A   Scattered Clouds
5:52 AM 9.0 °F 0.6 °F -0.9 °F 64% 30.31 in 10.0 mi SSW 4.6 mph - N/A   Mostly Cloudy
6:02 AM 9.0 °F 0.6 °F -0.9 °F 64% 30.24 in 10.0 mi SSW 4.6 mph - N/A   Scattered Clouds
6:29 AM 9.0 °F -0.9 °F -0.0 °F 67% 30.25 in 10.0 mi SW 5.8 mph - N/A   Mostly Cloudy
6:44 AM 8.1 °F -0.5 °F -0.9 °F 67% 30.26 in 10.0 mi SSW 4.6 mph - N/A   Scattered Clouds
6:52 AM 8.1 °F -2.0 °F -0.9 °F 67% 30.34 in 10.0 mi SW 5.8 mph - N/A   Scattered Clouds
7:07 AM 9.0 °F -0.9 °F -0.9 °F 64% 30.27 in 10.0 mi SW 5.8 mph - N/A   Mostly Cloudy
7:20 AM 8.1 °F -2.0 °F -0.9 °F 67% 30.27 in 10.0 mi SSW 5.8 mph - N/A   Mostly Cloudy
7:52 AM 8.1 °F -3.2 °F -0.9 °F 67% 30.35 in 10.0 mi SSW 6.9 mph - N/A   Clear
8:52 AM 10.9 °F 1.4 °F -0.0 °F 61% 30.35 in 9.0 mi WSW 5.8 mph - N/A   Clear
9:52 AM 12.9 °F 5.2 °F -0.0 °F 56% 30.37 in 10.0 mi Variable 4.6 mph - N/A   Clear
10:52 AM 15.1 °F 5.2 °F -0.9 °F 49% 30.34 in 10.0 mi WNW 6.9 mph - N/A   Clear
11:52 AM 18.0 °F 7.7 °F -4.0 °F 38% 30.32 in 10.0 mi West 8.1 mph - N/A   Clear
12:52 PM 19.9 °F 14.9 °F -2.9 °F 37% 30.31 in 10.0 mi Variable 3.5 mph - N/A   Clear
1:52 PM 21.0 °F 16.2 °F -5.1 °F 32% 30.30 in 10.0 mi Variable 3.5 mph - N/A   Clear
2:52 PM 21.9 °F 15.7 °F -0.0 °F 38% 30.29 in 8.0 mi SSE 4.6 mph - N/A   Clear
3:52 PM 21.0 °F 14.6 °F -0.0 °F 40% 30.28 in 10.0 mi South 4.6 mph - N/A   Clear
4:52 PM 18.0 °F - 1.0 °F 48% 30.27 in 10.0 mi Calm Calm - N/A   Clear
5:52 PM 14.0 °F - 6.1 °F 71% 30.27 in 10.0 mi Calm Calm - N/A   Clear
6:52 PM 16.0 °F - 7.0 °F 68% 30.25 in 10.0 mi Calm Calm - N/A   Partly Cloudy
7:52 PM 18.0 °F - 8.1 °F 65% 30.25 in 10.0 mi Calm Calm - N/A   Overcast
8:52 PM 19.0 °F 12.3 °F 9.0 °F 65% 30.22 in 10.0 mi WNW 4.6 mph - N/A   Overcast
9:52 PM 19.9 °F 14.9 °F 10.0 °F 65% 30.23 in 10.0 mi ESE 3.5 mph - N/A   Overcast
10:52 PM 21.0 °F - 10.9 °F 65% 30.21 in 10.0 mi Calm Calm - N/A   Overcast
11:52 PM 21.0 °F 16.2 °F 10.9 °F 65% 30.20 in 10.0 mi SSE 3.5 mph - N/A   Overcast